Regional Weather Roundup
Issued by NWS

Home | Current Version | Previous Version | Graphics & Text | Print | Product List | Glossary On
Versions: 1 2 3 4 5 6 7 8 9 10 11 12 13 14 15 16 17 18 19 20 21 22 23 24 25 26 27
000
ASUS45 KSLC 180010
RWRUT

UTAH REGIONAL WEATHER ROUNDUP
NATIONAL WEATHER SERVICE SALT LAKE CITY UT
600 PM MDT THU AUG 17 2017

UTZ001>011-023>025-180100-

NORTHERN UTAH

CITY           SKY/WX    TMP DP  RH WIND       PRES   REMARKS
BRIGHAM CITY   SUNNY     89  23   9 S9        30.08F
HILL AFB       SUNNY     86  32  14 W8        30.13F
LOGAN          SUNNY     88  37  16 SW12      30.08F
OGDEN          SUNNY     87  28  12 W8        30.09F
SALT LAKE CITY MOSUNNY   90  39  16 N9        30.07F
TOOELE VALLEY  SUNNY     86  43  22 N13       30.09F
WENDOVER       SUNNY     89  37  16 SE8       30.05F
HEBER CITY     SUNNY     86  34  15 SW8       30.15S
WEST JORDAN    SUNNY     86  53  31 N10       30.11F

$$

UTZ011>015-024>027-180100-

CENTRAL/NORTHEAST UTAH

CITY           SKY/WX    TMP DP  RH WIND       PRES   REMARKS
PROVO AIRPORT  SUNNY     88  42  20 N8        30.09F
MOAB/CANYONLAN SUNNY     92  30  11 NW7       30.05F
DELTA          SUNNY     88  32  13 CALM      30.10F
PRICE          MOSUNNY   83  35  18 N9        30.17F
ROOSEVELT      SUNNY     86  34  15 CALM      30.12F
VERNAL         SUNNY     85  39  19 VRB3      30.12F

$$

UTZ013>016-019>022-027-180100-

SOUTHERN UTAH

CITY           SKY/WX    TMP DP  RH WIND       PRES   REMARKS
BRYCE CANYON   PTSUNNY   74  38  27 SW5       30.34S
CEDAR CITY     MOSUNNY   85  32  15 S3        30.16F
MILFORD        MOSUNNY   92  34  13 CALM      30.11F
ST GEORGE      CLEAR     97  36  12 VRB5      29.96F HX  92
HANKSVILLE     MOSUNNY   91  32  12 NW6       30.07S
BLANDING       MOSUNNY   84  30  14 SW8       30.25S

$$

REGIONAL REPORTS     COLORADO/ARIZONA

CITY           SKY/WX    TMP DP  RH WIND       PRES   REMARKS
CRAIG, CO      MOSUNNY   84  27  12 W20       30.18S
GRAND JUNCTION SUNNY     89  31  12 W8        30.08F
RIFLE, CO      SUNNY     85  31  14 NW8       30.15F
MONTROSE, CO   CLOUDY    81  37  20 N8        30.18F
CORTEZ, CO     CLOUDY    86  25  11 NW9       30.18F
COLORADO CITY    N/A     90  34  13 CALM      30.15F
PAGE, AZ       SUNNY     94  33  11 CALM      30.05F
GRAND CANYON   SUNNY     81  29  15 SW10G16   30.27F
KINGMAN, AZ    SUNNY     93  40  15 SW8G20    30.03F
FLAGSTAFF, AZ  SUNNY     75  27  17 SW12      30.31F

$$

REGIONAL REPORTS    NEVADA/IDAHO/WYOMING

CITY           SKY/WX    TMP DP  RH WIND       PRES   REMARKS
LAS VEGAS, NV  MOSUNNY  101  40  12 NE6       29.91F HX  96
ELY, NY        MOSUNNY   84  32  15 W6        30.21F
ELKO, NV       SUNNY     89  22   8 SW9G18    30.14S
POCATELLO, ID  SUNNY     84  31  14 W20       30.11F
BURLEY, ID     SUNNY     81  41  24 W12       30.09F
FORT BRIDGER,    N/A     79  31  17 W24G30    30.29S
EVANSTON, WY   MOSUNNY   76  35  22 W17       30.29S
ROCK SPRINGS,  CLOUDY    80  29  15 W15G30    30.21S
KEMMERER, WY     N/A     73  28  19 W17G29    30.28S

$$




USA.gov is the U.S. government's official web portal to all federal, state and local government web resources and services.